Location: Rodson Ranch
(38.7188°N, 119.3202°W)
Time: 16:44:17
(UTC+00:00)

SJ-7 - Pass Details

Date: 29 October 2020
Orbit: 554 x 603 km, 97.7° (Epoch: 22 November)

Event Time Altitude Azimuth Distance (km) Brightness Sun altitude
Rises 13:47:26 0° 10° (N) 2,756 7.9 -7.3°
Reaches altitude 10° 13:49:35 10° 9° (N) 1,851 7.0 -6.9°
Maximum altitude 13:53:34 78° 285° (WNW) 572 4.3 -6.1°
Drops below altitude 10° 13:57:31 10° 198° (SSW) 1,828 6.9 -5.4°
Sets 13:59:38 0° 197° (SSW) 2,718 7.8 -5.0°
